Location: Saint Louis
(38.6272°N, 90.1978°W)
Time: 21:55:13
(UTC-05:00)

Hubble Space Telescope - Visible Passes

Search period start: 20 April 2015 00:00
Search period end: 30 April 2015 00:00
Orbit: 543 x 546 km, 28.5° (Epoch: 20 April)

Date Brightness Start Highest point End Pass type
(mag) Time Alt. Az. Time Alt. Az. Time Alt. Az.
20 Apr 3.3 03:58:57 12° SE 03:58:57 12° SE 03:59:26 10° SE visible
20 Apr 2.5 05:34:24 11° SW 05:37:14 19° S 05:40:11 10° SE visible
21 Apr 3.5 03:50:55 10° SE 03:50:55 10° SE 03:50:56 10° SE visible
21 Apr 2.6 05:26:23 12° SW 05:28:37 17° S 05:31:24 10° SSE visible
22 Apr 2.6 05:18:25 13° SW 05:20:00 16° SSW 05:22:31 10° SSE visible
23 Apr 2.7 05:10:32 13° SSW 05:11:22 14° SSW 05:13:31 10° SSE visible
24 Apr 2.9 05:02:47 12° SSW 05:02:47 12° SSW 05:04:16 10° S visible
